Regional Weather Roundup
Issued by NWS Upton, NY

Current Version | Previous Version | Text Only | Print | Product List | Glossary Off
Versions: 1 2 3 4 5 6 7 8 9 10 11 12 13 14 15 16 17 18 19 20 21 22 23 24 25 26 27 28

000
ASUS41 KOKX 231105
RWROKX

REGIONAL WEATHER ROUNDUP
NATIONAL WEATHER SERVICE NEW YORK NY
700 AM EDT TUE AUG 23 2016

NOTE: "FAIR" INDICATES FEW OR NO CLOUDS BELOW 12,000 FEET WITH NO
SIGNIFICANT WEATHER AND/OR OBSTRUCTIONS TO VISIBILITY.

NYZ071-072-176-178-NJZ106-104-231200-
NEW YORK CITY METRO AREA

CITY           SKY/WX    TMP DP  RH WIND       PRES   REMARKS
Central Park   CLEAR     64  49  57 W6        30.32R
LaGuardia APRT CLEAR     68  51  54 W6        30.29R
Kennedy INTL   PTCLDY    66  50  56 N3        30.30R
Newark/Liberty CLEAR     61  52  72 N5        30.30R
Bronx Bot Gard   N/A     59  50  72 NE1       30.30F
Wall St Helipt MOSUNNY   68  55  64 NE3       30.30S
Teterboro      PTCLDY    60  51  72 CALM      30.30R
$$

NYZ177-179-078>081-231200-
LONG ISLAND NEW YORK

CITY           SKY/WX    TMP DP  RH WIND       PRES   REMARKS
Farmingdale    PTCLDY    60  54  80 N3        30.30R
MacArthur/ISP  CLEAR     60  55  83 N3        30.29R
Shirley        PTCLDY    55  53  93 CALM      30.29R
Riverhead      NOT AVBL
Westhampton    CLEAR     51  47  86 CALM      30.31R
Southampton      N/A     64  55  72 N3        30.25R
Bridgehampton  NOT AVBL
East Hampton   FAIR      53  51  94 CALM      30.27S
Montauk          N/A     65  53  65 NW7       30.29R
$$

NYZ052-065-067-231200-
HUDSON VALLEY

CITY           SKY/WX    TMP DP  RH WIND       PRES   REMARKS
White Plains   PTCLDY    57  52  83 NW7       30.30R
Newburgh       CLEAR     54  52  94 CALM      30.32R
Montgomery     CLEAR     51  49  92 CALM      30.32R
Poughkeepsie   CLEAR    N/A N/A N/A MISG      30.30R
Albany         CLEAR     52  49  89 S5        30.29R
$$

NJZ001-105-106-008-010-013-015-019>022-104-231200-
NEW JERSEY

CITY           SKY/WX    TMP DP  RH WIND       PRES   REMARKS
Newark/Liberty CLEAR     61  52  72 N5        30.30R
Teterboro      PTCLDY    60  51  72 CALM      30.30R
Caldwell       CLEAR     56  53  90 CALM      30.32R
Morristown     CLEAR     52  50  93 CALM      30.31R
Somerville     CLEAR     52  50  93 CALM      30.30R
Linden         FAIR      60  50  69 CALM      30.33R
Sussex         LGT RAIN  50  50 100 CALM      30.33R
Abdover          N/A     50  49  96 CALM      30.33R
Trenton        CLEAR     58  53  84 NW3       30.31R
Millville      CLEAR     57  55  93 N3        30.31R
Atlantic City  CLEAR     57  49  74 CALM      30.31R
Wrightstown    CLEAR     58  53  83 CALM      30.29R
Toms River     CLEAR     52  51  97 CALM      30.31R
Belmar         CLEAR     56  52  86 NW7       30.31R
$$

PAZ047>061-062-071-231200-
EASTERN PENNSYLVANIA

CITY           SKY/WX    TMP DP  RH WIND       PRES   REMARKS
Philadelphia   PTCLDY    62  52  69 NW6       30.32R
Allentown      CLEAR     53  51  93 CALM      30.33R
Scranton       CLEAR     51  48  89 E5        30.34R
$$

CTZ002-004>006-009-010-012-RIZ004-006-007-MAZ004-011-015-231200-
SOUTHERN NEW ENGLAND
 IN CT

CITY           SKY/WX    TMP DP  RH WIND       PRES   REMARKS
Bradley INTL   CLEAR     56  50  80 CALM      30.29R
Hartford       CLEAR     58  54  86 S3        30.29R
Danbury        CLEAR     50  49  96 SW3       30.32R
Wtrbury/Oxford CLEAR     54  46  76 NW3       30.31R
Bridgeport     CLEAR     61  50  67 CALM      30.29R
Meriden        CLEAR     53  50  89 CALM      30.30R
New Haven      CLEAR     57  52  83 N6        30.29R
Chester        FAIR      59  50  72 NW5       30.29R
Groton         CLEAR     58  51  78 N6        30.27R
Wilimantic     MOCLDY    52  51  97 CALM      30.29R

 IN RI

CITY           SKY/WX    TMP DP  RH WIND       PRES   REMARKS
Providence     CLEAR     59  50  72 W5        30.27R
Block Island   CLEAR     63  54  72 NW5       30.27R
Westerly       CLEAR     55  50  83 CALM      30.28R
 IN MA

CITY           SKY/WX    TMP DP  RH WIND       PRES   REMARKS
Boston         CLEAR     62  50  64 NW9       30.25R
Worcester      CLEAR     56  46  69 W10       30.27R
Westfield      CLEAR     51  50  96 CALM      30.29R
Provincetown   SUNNY     63  56  78 NW9       30.24R
Nantucket      SUNNY     66  54  65 N6        30.24R
$$

ANZ330-335-338-340-345-350-353-355-231200-
COASTAL MARINE OBSERVATIONS


STATION/POSITION TIME  SKY/WX   TEMP    WIND        PRES    VSBY  WAVE
                                AIR SEA DIR/SP/G                  HT/PER
                 (UTC)          (F)     (DEG/KT/KT) (MB)    (MI)  (FT/S)
NY HARB ENTRANCE 0950            70 76  360/  8/ 10 1024.8          1/14
20S FIRE ISLAND  0950            70 76   10/ 12/ 14 1024.5          2/ 4
GREAT SOUTH BAY  1000            66 80  350/  8/ 10   N/A
23 SSW MONTAUK P NOT AVBL
15 E BARNEGAT LI 1000               76                N/A           3/ 5
HUDSON CANYON    0950            72 78              1023.9          4/ 5
KINGS POINT      1000            66 74              1025.2
EXECUTION ROCKS  1000            66     320/  8/ 10   N/A
CENTRAL LI SOUND 1000            67 74  320/ 14/ 17   N/A           1/ 2
EASTERN LI SOUND 1000            62 69  340/  8/ 10   N/A
ROBBINS REEF     1000            65     340/  6/  9 1024.9
$$


>>>>>>>>>>>>>>>>>>>>>>>>>>>> KEY <<<<<<<<<<<<<<<<<<<<<<<<<<<
>                                                          <
>     SKY/WX - Sky Condition/Present Weather               <
>     TMP    - Temperature in Fahrenheit                   <
>     DP     - Dew Point in Fahrenheit                     <
>     RH     - Relative Humidity in Percent                <
>     WIND   - Direction (from) and Speed in MPH           <
>     PRES   - Mean Sea Level Pressure (inches of Hg)      <
>     WCI    - Wind Chill Index                            <
>     VSB    - VISIBILITY IN MILES                         <
>     HX     - HEAT INDEX                                  <
>     TC     - TEMPERATURE IN CELSIUS                      <
>     VRB    - VARIABLE WIND DIRECTION                     <
>                                                          <
>>>>>>>>>>>>>>>>>>>>>>>>>>>> KEY <<<<<<<<<<<<<<<<<<<<<<<<<<<




USA.gov is the U.S. government's official web portal to all federal, state and local government web resources and services.